User: anonymous   Login
Location: Mentone
(34.5413°N, 85.5351°W)
Time: 21:58:19
(UTC-06:00)
Language:

Centaur AC-72 - Orbit

View from above orbital plane
View from above orbital plane
View from above satellite
View from above satellite

Ground track
Ground track

The orbit data is extracted from the following two-line orbital elements,

1 21907U 92013B   14328.31988844 -.00000028  00000-0  00000+0 0  9593
2 21907 019.0861 208.9372 6936936 326.4139 245.9402 02.25606582187151
Epoch (UTC): 24 November 2014 07:40:38
Eccentricity: 0.6936936
inclination: 19.0861°
perigee height: 1143 km
apogee height: 35213 km
right ascension of ascending node: 208.9372°
argument of perigee: 326.4139°
revolutions per day: 2.25606582
mean anomaly at epoch: 245.9402°
orbit number at epoch: 18715

The dashed part of the orbit path shows where the satellite is in the earth's shadow,  

DLR